Grosse Ile, MI

9:36 PM EST on November 21, 2017 (GMT -0500)
Grosse Ile Municipal

Weather History for KONZ - January, 2014

Change the Weather History Date:

Monday, January 6, 2014

  Actual Average (KDTW) Record (KDTW)
Temperature  
Mean Temperature 4 °F -  
Max Temperature 21 °F 31 °F 62 °F (1946)
Min Temperature -13 °F 18 °F -14 °F (2014)
Degree Days  
Heating Degree Days 61    
Moisture  
Dew Point -4 °F    
Average Humidity 72    
Maximum Humidity 93    
Minimum Humidity 60    
Precipitation  
Precipitation 0.00 in - - ()
Sea Level Pressure  
Sea Level Pressure 29.87 in    
Wind  
Wind Speed 19 mph (West)    
Max Wind Speed 26 mph    
Max Gust Speed 37 mph    
Visibility 5 miles    
Events Snow    
Averages and records for this station are not official NWS values.
T = Trace of Precipitation, MM = Missing Value Source: NWS Daily Summary

Daily Weather History Graph

Daily Weather History Graph

Search for Another Location

Airport or City:

Trip Planner

Search our weather history database for the weather conditions in past years. The results will help you decide how hot, cold, wet, or windy it might be!

Date:

Astronomy

Jan. 06, 2014 Rise Set
Actual Time 8:01 AM EST 5:16 PM EST
Civil Twilight 7:29 AM EST 5:47 PM EST
Nautical Twilight 6:54 AM EST 6:22 PM EST
Astronomical Twilight 6:20 AM EST 6:56 PM EST
Moon 11:09 AM EST (1/6) 11:55 PM EST (1/6)
Length of Visible Light 10h 18m
Length of Day
9h 15m
Waxing Crescent, 34% of the Moon is Illuminated
Jan 6
Waxing Crescent
Jan 7
First Quarter
Jan 15
Full
Jan 24
Last Quarter
Jan 30
New

Hourly Weather History & Observations

Time (EST) Temp. Windchill Dew Point Humidity Pressure Visibility Wind Dir Wind Speed Gust Speed Precip Events Conditions
12:14 AM 21.2 °F 5.2 °F 19.4 °F 93% 29.49 in 2.0 mi NW 21.9 mph 32.2 mph N/A Snow Light Snow
12:34 AM 21.2 °F 4.5 °F 17.6 °F 86% 29.51 in 2.5 mi NW 24.2 mph 33.4 mph N/A Snow Light Snow
12:54 AM 21.2 °F 6.0 °F 17.6 °F 86% 29.54 in 2.5 mi NW 19.6 mph 33.4 mph N/A Snow Light Snow
1:14 AM 21.2 °F 5.2 °F 17.6 °F 86% 29.53 in 2.5 mi NW 21.9 mph 29.9 mph N/A Snow Light Snow
1:34 AM 21.2 °F 6.0 °F 17.6 °F 86% 29.55 in 2.5 mi NW 19.6 mph 27.6 mph N/A Snow Light Snow
1:54 AM 19.4 °F 4.5 °F 15.8 °F 86% 29.57 in 4.0 mi NW 17.3 mph 29.9 mph N/A Snow Light Snow
2:14 AM 19.4 °F 3.2 °F 15.8 °F 86% 29.59 in 3.0 mi NW 20.7 mph 31.1 mph N/A Snow Light Snow
2:34 AM 17.6 °F 0.5 °F 12.2 °F 79% 29.61 in 5.0 mi NW 21.9 mph 31.1 mph N/A   Haze
2:54 AM 17.6 °F 0.9 °F 12.2 °F 79% 29.63 in 7.0 mi WNW 20.7 mph 27.6 mph N/A   Overcast
3:14 AM 17.6 °F 1.7 °F 10.4 °F 73% 29.65 in 10.0 mi WNW 18.4 mph 26.5 mph N/A   Mostly Cloudy
3:35 AM 17.6 °F 2.2 °F 10.4 °F 73% 29.67 in 10.0 mi WNW 17.3 mph 26.5 mph N/A   Clear
3:54 AM 15.8 °F 0.3 °F 10.4 °F 79% 29.68 in 10.0 mi WNW 16.1 mph 27.6 mph N/A   Clear
4:14 AM 15.8 °F 2.1 °F 10.4 °F 79% 29.69 in 10.0 mi WNW 12.7 mph 21.9 mph N/A   Scattered Clouds
4:34 AM 15.8 °F 2.7 °F 10.4 °F 79% 29.70 in 10.0 mi WNW 11.5 mph 20.7 mph N/A   Clear
4:54 AM 15.8 °F 1.4 °F 8.6 °F 73% 29.71 in 10.0 mi WNW 13.8 mph 21.9 mph N/A   Clear
5:14 AM 15.8 °F 2.7 °F 8.6 °F 73% 29.73 in 10.0 mi West 11.5 mph 17.3 mph N/A   Scattered Clouds
5:34 AM 15.8 °F 3.4 °F 10.4 °F 79% 29.73 in 10.0 mi West 10.4 mph 16.1 mph N/A   Overcast
5:54 AM 15.8 °F 4.2 °F 10.4 °F 79% 29.74 in 10.0 mi West 9.2 mph 17.3 mph N/A Snow Light Snow
6:14 AM 15.8 °F 1.4 °F 8.6 °F 73% 29.75 in 10.0 mi West 13.8 mph 18.4 mph N/A Snow Light Snow
6:34 AM 15.8 °F 3.4 °F 8.6 °F 73% 29.77 in 10.0 mi West 10.4 mph - N/A   Overcast
6:54 AM 15.8 °F 2.7 °F 8.6 °F 73% 29.78 in 10.0 mi West 11.5 mph - N/A   Overcast
7:14 AM 15.8 °F 5.1 °F 8.6 °F 73% 29.79 in 10.0 mi West 8.1 mph 17.3 mph N/A   Overcast
7:34 AM 15.8 °F 3.4 °F 8.6 °F 73% 29.79 in 10.0 mi WSW 10.4 mph - N/A   Overcast
7:54 AM 15.8 °F 2.1 °F 8.6 °F 73% 29.80 in 7.0 mi WSW 12.7 mph 17.3 mph N/A Snow Light Snow
8:14 AM 15.8 °F 2.1 °F 10.4 °F 79% 29.81 in 10.0 mi WSW 12.7 mph 19.6 mph N/A Snow Light Snow
8:34 AM 12.2 °F -4.8 °F 6.8 °F 79% 29.82 in 3.0 mi WSW 17.3 mph 23.0 mph N/A Snow Light Snow
8:54 AM 10.4 °F -10.7 °F 5.0 °F 79% 29.84 in 2.0 mi West 26.5 mph 34.5 mph N/A   Haze
9:13 AM 10.4 °F -8.6 °F 3.2 °F 73% 29.85 in 1.5 mi West 20.7 mph 29.9 mph N/A   Haze
9:34 AM 8.6 °F -10.0 °F 3.2 °F 79% 29.85 in 1.0 mi West 18.4 mph 28.8 mph N/A Snow Light Snow
9:54 AM 8.6 °F -7.7 °F 3.2 °F 79% 29.86 in 1.2 mi West 13.8 mph 25.3 mph N/A   Haze
10:14 AM 6.8 °F -11.8 °F 1.4 °F 79% 29.87 in 0.8 mi WSW 17.3 mph 32.2 mph N/A Snow Light Snow
10:34 AM 6.8 °F -14.3 °F -0.4 °F 72% 29.88 in 1.2 mi WSW 23.0 mph 32.2 mph N/A   Haze
10:54 AM 6.8 °F -13.4 °F -0.4 °F 72% 29.88 in 1.8 mi WSW 20.7 mph 29.9 mph N/A   Haze
11:14 AM 6.8 °F -13.8 °F -2.2 °F 67% 29.88 in 1.8 mi WSW 21.9 mph 27.6 mph N/A   Haze
11:34 AM 6.8 °F -13.8 °F -2.2 °F 67% 29.88 in 1.8 mi WSW 21.9 mph 28.8 mph N/A   Haze
11:54 AM 3.2 °F -20.3 °F -5.8 °F 66% 29.88 in 1.2 mi WSW 26.5 mph 31.1 mph N/A   Haze
12:14 PM 1.4 °F -22.7 °F -5.8 °F 72% 29.88 in 1.5 mi WSW 26.5 mph 32.2 mph N/A   Haze
12:34 PM 1.4 °F -21.0 °F -7.6 °F 66% 29.88 in 2.5 mi WSW 21.9 mph 27.6 mph N/A   Haze
12:54 PM -0.4 °F -24.7 °F -9.4 °F 66% 29.88 in 1.0 mi WSW 25.3 mph 35.7 mph N/A   Haze
1:14 PM -0.4 °F -23.3 °F -9.4 °F 66% 29.88 in 2.0 mi WSW 21.9 mph 31.1 mph N/A   Haze
1:34 PM -0.4 °F -24.3 °F -9.4 °F 66% 29.88 in 2.5 mi WSW 24.2 mph 33.4 mph N/A   Haze
1:54 PM -0.4 °F -24.3 °F -9.4 °F 66% 29.89 in 1.8 mi WSW 24.2 mph 35.7 mph N/A Snow Light Snow
2:14 PM -0.4 °F -24.3 °F -9.4 °F 66% 29.89 in 2.5 mi WSW 24.2 mph 31.1 mph N/A   Haze
2:34 PM -0.4 °F -21.7 °F -9.4 °F 66% 29.90 in 1.8 mi WSW 18.4 mph 33.4 mph N/A   Haze
2:53 PM -0.4 °F -23.3 °F -11.2 °F 60% 29.91 in 3.0 mi WSW 21.9 mph 28.8 mph N/A   Haze
3:14 PM -2.2 °F -26.2 °F -11.2 °F 66% 29.92 in 2.0 mi WSW 23.0 mph 33.4 mph N/A   Haze
3:34 PM -2.2 °F -26.2 °F -11.2 °F 66% 29.94 in 2.5 mi WSW 23.0 mph 29.9 mph N/A   Haze
3:54 PM -4.0 °F -27.6 °F -13.0 °F 65% 29.95 in 3.0 mi WSW 20.7 mph 33.4 mph N/A   Haze
4:14 PM -5.8 °F -32.0 °F -14.8 °F 65% 29.96 in 1.5 mi WSW 25.3 mph 35.7 mph N/A Snow Light Snow
4:34 PM -5.8 °F -31.5 °F -14.8 °F 65% 29.98 in 2.5 mi WSW 24.2 mph 31.1 mph N/A   Haze
4:54 PM -5.8 °F -31.5 °F -14.8 °F 65% 29.99 in 2.5 mi WSW 24.2 mph 35.7 mph N/A   Haze
5:14 PM -7.6 °F -33.4 °F -16.6 °F 65% 30.00 in 4.0 mi WSW 23.0 mph 31.1 mph N/A   Haze
5:34 PM -7.6 °F -33.9 °F -16.6 °F 65% 30.01 in 4.0 mi WSW 24.2 mph 32.2 mph N/A   Haze
5:54 PM -7.6 °F -31.7 °F -16.6 °F 65% 30.02 in 4.0 mi WSW 19.6 mph 36.8 mph N/A   Haze
6:14 PM -9.4 °F -35.2 °F -18.4 °F 65% 30.04 in 5.0 mi WSW 21.9 mph 29.9 mph N/A   Haze
6:34 PM -9.4 °F -34.7 °F -18.4 °F 65% 30.05 in 7.0 mi WSW 20.7 mph 32.2 mph N/A   Scattered Clouds
6:54 PM -9.4 °F -34.7 °F -18.4 °F 65% 30.06 in 7.0 mi WSW 20.7 mph 29.9 mph N/A   Clear
7:14 PM -11.2 °F -38.2 °F -18.4 °F 70% 30.08 in 7.0 mi WSW 23.0 mph 32.2 mph N/A   Clear
7:34 PM -11.2 °F -37.6 °F -20.2 °F 64% 30.08 in 4.0 mi West 21.9 mph 31.1 mph N/A   Haze
7:54 PM -11.2 °F -36.4 °F -20.2 °F 64% 30.09 in 5.0 mi WSW 19.6 mph 29.9 mph N/A   Haze
8:14 PM -11.2 °F -37.6 °F -20.2 °F 64% 30.09 in 4.0 mi WSW 21.9 mph 31.1 mph N/A   Haze
8:34 PM -13.0 °F -40.0 °F -20.2 °F 70% 30.10 in 7.0 mi WSW 21.9 mph 28.8 mph N/A   Clear
8:54 PM -13.0 °F -38.2 °F -20.2 °F 70% 30.10 in 7.0 mi WSW 18.4 mph 27.6 mph N/A   Clear
9:14 PM -13.0 °F -40.0 °F -20.2 °F 70% 30.10 in 7.0 mi WSW 21.9 mph 28.8 mph N/A   Clear
9:34 PM -13.0 °F -38.8 °F -20.2 °F 70% 30.10 in 10.0 mi WSW 19.6 mph 27.6 mph N/A   Clear
9:54 PM -13.0 °F -36.8 °F -20.2 °F 70% 30.10 in 7.0 mi WSW 16.1 mph 29.9 mph N/A   Clear
10:14 PM -13.0 °F -37.5 °F -22.0 °F 64% 30.10 in 10.0 mi WSW 17.3 mph 27.6 mph N/A   Clear
10:34 PM -13.0 °F -34.3 °F -20.2 °F 70% 30.10 in 10.0 mi WSW 12.7 mph 24.2 mph N/A   Clear
10:54 PM -13.0 °F -38.2 °F -20.2 °F 70% 30.10 in 7.0 mi SW 18.4 mph 27.6 mph N/A   Clear
11:14 PM -13.0 °F -37.5 °F -20.2 °F 70% 30.11 in 7.0 mi SW 17.3 mph 26.5 mph N/A   Clear
11:34 PM -13.0 °F -36.8 °F -20.2 °F 70% 30.10 in 10.0 mi SW 16.1 mph 25.3 mph N/A   Clear
11:54 PM -13.0 °F -36.0 °F -20.2 °F 70% 30.10 in 7.0 mi WSW 15.0 mph 27.6 mph N/A   Clear